Theta_e
337 339 338 340 339 339 339 340 340 343 347 347 347 348 348 348 352 353 355 358 359 357 356 355 354 356 356 351 353 354 357 358 357 358 358 361 363 363 365 364 361 362 364 367 364 364 366 365 367 364 366 368 367 365 362 363 364 365 364 367 361 361 360 357 357 356 358 358 367 357 354 362 357 362 353 349 348 351 350 350 352 350 352 352 363
338 339 337 339 339 340 339 339 343 341 345 345 346 348 349 347 350 351 354 357 358 357 357 356 358 355 354 352 352 354 358 356 357 357 359 361 365 364 364 362 360 359 361 365 365 364 364 363 366 367 369 369 365 363 363 368 367 364 363 366 367 362 356 351 351 358 356 352 349 348 351 362 363 351 347 344 344 345 346 355 356 352 344 346 344
337 338 338 339 339 340 339 339 340 341 344 343 346 348 350 351 355 355 353 355 358 358 359 359 359 361 356 355 350 354 359 358 356 356 359 361 363 363 363 362 360 358 360 364 365 364 363 364 368 369 365 368 366 364 364 366 368 363 364 365 360 361 362 359 360 359 350 351 357 357 344 347 357 351 348 344 342 343 344 343 346 345 345 348 349
335 337 336 339 338 340 340 340 341 341 345 343 345 348 347 355 357 358 357 357 359 360 360 359 359 363 366 361 360 355 355 359 360 359 362 362 360 360 363 361 361 360 360 364 367 366 366 367 367 369 367 367 370 367 365 364 367 367 362 363 365 352 347 349 356 359 355 354 347 348 343 343 342 343 345 345 343 342 342 340 343 340 345 357 359
337 337 336 339 337 340 341 343 341 340 343 343 345 347 347 349 356 359 359 358 360 361 362 364 363 363 365 364 365 361 360 359 356 354 357 358 359 361 362 363 363 361 361 364 364 363 366 370 367 368 368 370 367 367 367 361 362 364 367 368 363 361 349 352 357 357 359 360 367 348 351 345 341 339 340 359 342 341 341 334 346 357 339 346 355
339 339 338 339 338 341 342 343 340 341 342 344 346 346 348 350 357 361 359 361 357 360 363 364 363 361 360 358 355 359 355 354 352 351 353 354 357 361 363 363 360 363 364 365 366 366 368 366 366 366 365 370 370 367 366 367 365 362 365 364 362 363 373 354 346 363 351 360 361 363 353 352 345 342 341 350 357 345 349 337 346 344 338 347 357
341 341 339 339 339 340 342 343 341 341 343 344 345 345 349 352 357 358 360 361 359 361 363 364 362 360 359 353 355 357 357 356 361 358 356 358 360 357 362 361 362 361 360 365 366 363 370 367 367 366 366 366 370 369 367 361 357 361 362 364 363 371 369 366 356 350 365 364 347 345 349 359 348 360 348 356 347 357 354 335 338 343 339 340 344
339 342 341 340 340 340 342 343 342 343 343 344 344 345 350 355 358 359 360 361 360 362 362 365 361 361 360 358 356 357 352 357 359 363 356 361 359 358 361 359 362 362 364 369 367 368 368 369 369 368 369 364 368 366 363 359 362 365 367 370 372 376 371 369 359 350 352 355 355 351 354 349 351 348 358 343 355 355 343 349 336 340 340 342 343
344 343 345 341 341 341 342 343 343 344 344 343 343 346 352 356 359 360 360 362 362 364 363 363 364 363 361 357 359 359 358 357 359 359 366 361 361 361 363 360 366 368 368 366 367 367 371 369 369 371 368 367 368 366 363 362 362 367 367 369 368 370 367 370 370 362 353 353 360 367 353 356 349 353 348 350 352 348 347 336 339 338 340 343 347
345 344 344 343 343 342 344 345 344 343 344 345 344 345 348 354 358 360 360 362 362 364 364 363 364 364 362 360 359 358 361 360 359 360 363 363 364 364 369 369 362 364 367 368 369 367 369 372 367 366 368 364 364 364 363 366 367 368 368 364 367 365 376 371 363 372 356 359 358 364 365 358 351 353 342 348 345 350 346 343 344 344 346 357 360
346 348 348 346 344 345 347 346 345 343 346 345 343 345 347 350 357 357 361 361 363 364 364 362 363 363 361 361 359 358 360 361 361 361 366 364 362 362 364 368 365 362 363 368 366 364 367 368 362 365 364 368 366 362 366 360 362 362 361 367 369 369 368 368 363 364 374 367 355 367 364 350 353 352 349 348 352 349 354 340 337 340 334 346 348
344 344 345 346 353 351 352 348 347 346 345 345 343 344 349 352 356 357 361 361 362 363 363 360 360 361 362 362 361 360 360 356 359 359 361 361 362 364 366 364 364 363 364 364 362 360 367 367 368 366 366 366 367 369 370 365 363 362 366 370 371 370 369 367 362 361 356 363 357 352 354 350 354 350 349 359 361 353 350 343 348 348 351 338 350
345 346 346 347 349 349 346 346 349 352 347 347 343 344 348 353 357 357 359 361 362 362 363 362 361 361 361 361 362 363 362 363 361 361 361 362 361 364 365 361 362 363 361 362 359 363 366 367 364 370 367 365 372 371 371 371 369 370 368 362 367 366 370 369 364 360 355 357 348 350 347 345 346 349 353 339 354 368 360 349 342 344 357 350 348
345 346 346 349 348 347 349 351 353 351 347 345 344 347 350 352 358 356 359 361 362 363 363 363 362 362 364 362 362 364 363 362 361 358 358 363 364 363 360 359 362 359 357 362 360 361 363 365 367 369 372 372 371 366 366 370 372 372 370 370 362 369 370 368 368 361 365 360 356 356 348 347 352 352 353 354 341 342 347 350 364 356 341 346 357
346 345 346 349 350 351 349 349 351 353 351 348 347 350 353 356 360 360 360 361 362 363 363 362 361 363 364 363 364 363 361 361 361 361 361 359 356 358 363 360 359 360 362 365 365 365 365 367 367 368 370 372 371 371 369 371 375 371 378 369 371 369 369 364 363 357 351 352 358 365 359 351 353 352 352 345 355 352 351 349 352 345 347 348 349
344 346 346 345 349 347 349 348 350 350 351 349 350 352 352 357 361 361 361 360 361 363 363 361 362 362 364 364 364 363 364 361 366 366 366 361 361 362 365 368 366 365 365 365 363 364 366 365 367 365 371 368 371 372 372 371 373 371 371 371 372 363 366 364 366 358 353 357 354 364 365 350 355 350 352 350 353 355 359 364 369 363 352 347 351
345 346 347 346 347 347 347 349 350 350 351 351 351 349 353 359 359 362 363 361 360 364 362 362 363 362 363 363 362 362 360 359 356 356 352 356 362 361 361 361 364 369 363 362 364 368 369 367 364 361 369 371 371 372 370 372 373 373 369 372 372 365 368 367 364 363 363 351 354 354 362 365 359 362 357 361 361 367 365 366 362 360 360 355 350
344 347 349 352 350 349 348 349 350 352 352 350 350 352 352 356 359 361 362 361 360 361 361 361 362 361 363 363 363 362 358 357 356 355 354 356 360 362 359 361 360 360 359 358 363 364 369 368 368 367 365 366 367 367 369 369 372 370 368 373 370 370 371 370 368 364 361 363 358 355 354 356 361 356 358 353 365 365 365 360 360 366 368 363 359
344 344 346 347 347 350 351 351 351 352 357 355 351 353 355 352 354 356 359 360 361 361 360 361 361 358 359 360 360 360 359 358 356 358 357 355 352 354 355 358 357 363 367 371 364 361 365 366 370 365 367 367 366 366 369 370 370 372 369 368 371 373 374 372 370 367 365 364 365 361 363 361 363 357 360 352 364 359 367 365 363 378 371 374 370
342 344 348 349 349 352 352 352 352 351 351 352 351 352 351 355 355 352 354 359 360 359 360 360 360 359 358 361 363 363 362 360 359 358 353 352 353 354 354 353 357 358 360 364 364 362 362 361 360 359 360 361 363 363 364 368 370 371 366 365 365 369 369 368 365 364 357 364 367 366 370 369 366 366 367 361 361 370 366 358 355 373 373 372 367
339 342 345 349 350 350 349 350 351 353 354 354 351 350 350 354 354 355 354 355 358 358 356 359 360 360 362 361 359 360 357 357 354 354 354 353 353 355 352 352 358 356 358 358 362 364 364 363 360 362 359 363 366 364 365 367 369 370 370 369 368 370 368 367 369 368 360 365 366 366 366 366 369 365 367 362 357 362 365 365 367 369 362 364 360
336 337 340 344 347 348 349 350 353 352 352 349 351 351 351 351 351 350 353 358 358 353 353 358 359 358 356 358 360 360 358 357 353 351 352 352 352 353 355 354 352 357 357 354 359 358 361 361 360 360 362 361 367 369 360 362 365 367 366 361 363 369 369 368 369 367 369 364 367 368 368 364 368 365 362 357 356 351 353 352 355 356 361 359 363
334 335 335 338 346 348 349 350 351 351 349 353 351 350 352 354 358 358 357 356 358 358 358 356 354 357 356 357 360 360 359 356 352 350 349 349 351 351 355 352 348 350 355 355 357 357 362 363 361 363 363 362 366 363 362 363 364 366 364 362 359 364 368 366 364 366 365 366 365 368 364 365 359 360 362 359 357 355 355 356 351 352 354 355 361
330 333 333 333 335 339 345 348 350 351 352 354 355 354 354 354 355 356 357 357 358 358 359 358 358 356 352 353 358 358 357 354 351 349 349 349 350 350 353 351 348 349 349 355 357 358 361 364 362 364 365 362 366 361 362 362 366 365 365 366 368 366 364 363 363 363 362 363 362 364 362 362 362 363 364 364 363 361 359 361 363 374 369 362 366
328 329 329 329 331 333 336 340 346 349 348 350 353 353 349 351 353 353 357 358 357 358 358 355 352 354 355 349 352 352 354 355 351 348 348 348 349 350 351 349 348 347 349 351 356 360 361 363 357 360 363 362 363 363 363 360 360 362 364 362 363 366 365 364 363 365 365 365 363 361 362 364 365 363 364 362 360 361 360 358 360 363 366 367 366
325 325 326 326 329 330 331 334 337 341 344 347 348 349 349 351 352 353 354 355 356 354 356 356 355 354 354 353 352 352 352 351 352 349 346 347 347 347 349 350 350 349 350 350 353 354 358 360 360 359 360 362 363 364 364 362 357 358 360 361 363 363 360 363 362 362 362 362 360 362 362 363 362 360 359 361 363 362 361 358 359 365 364 364 364
323 324 324 325 327 328 329 330 330 332 336 339 339 344 346 348 349 351 352 354 354 355 355 352 352 353 352 351 355 352 353 348 350 348 346 347 345 344 345 348 350 350 348 346 351 354 356 359 360 360 358 361 362 361 364 364 362 360 359 358 357 358 357 357 358 357 356 357 358 358 361 361 361 362 360 360 363 362 360 361 364 362 363 367 366
323 324 324 324 325 326 328 330 330 331 333 336 337 338 342 346 346 348 349 350 353 354 353 353 351 353 352 353 353 357 354 349 353 356 355 348 346 346 347 348 351 350 348 346 345 352 355 355 359 358 360 362 363 361 364 365 362 360 359 359 356 355 353 354 354 356 354 353 355 355 353 356 358 362 362 362 363 362 363 360 361 364 365 363 360
320 322 324 325 325 326 327 329 330 328 331 333 335 336 341 344 346 347 348 349 351 351 352 351 351 349 350 355 356 356 357 355 353 351 352 356 355 356 359 357 356 350 347 348 346 345 351 351 353 357 359 360 358 358 358 361 361 360 359 355 356 354 353 354 354 352 354 355 353 352 352 351 358 369 365 364 363 367 361 362 363 365 366 365 363
317 319 321 324 326 326 327 329 330 328 327 328 329 332 335 337 342 344 347 348 350 350 352 351 351 352 355 355 358 355 357 359 358 355 354 355 359 362 359 365 364 355 355 355 354 352 349 351 352 355 357 356 356 356 357 349 353 359 358 352 351 354 354 353 356 355 352 354 351 349 349 365 368 369 361 358 356 358 364 364 369 368 364 362 363
318 319 318 320 323 324 325 327 328 329 329 328 329 333 335 337 340 342 344 347 348 349 350 350 351 352 353 357 357 358 358 355 356 357 358 359 360 354 352 352 355 360 366 368 360 353 347 345 350 350 351 351 353 352 346 337 339 346 358 358 354 356 357 355 354 357 355 351 350 351 351 358 365 371 366 356 354 352 353 356 357 360 370 372 366
318 319 319 319 319 320 321 323 325 328 328 330 331 332 332 334 336 340 345 349 348 347 348 348 351 351 352 352 355 355 357 359 358 360 358 361 358 358 356 354 353 351 352 355 352 356 358 352 346 347 349 350 352 347 334 333 335 336 346 359 356 352 350 353 353 351 352 352 350 348 347 345 348 354 358 365 357 352 348 349 350 352 352 354 359
318 318 319 320 319 319 321 321 322 322 327 328 330 330 332 334 336 339 345 346 344 344 344 345 347 348 346 347 351 353 354 355 358 359 360 359 358 356 356 354 352 354 355 353 351 354 356 355 352 354 349 349 350 342 331 330 332 333 335 349 355 353 349 346 348 351 351 352 354 353 351 349 344 360 360 357 363 359 348 344 347 349 350 349 342
318 318 318 319 320 321 321 321 324 324 322 322 327 331 332 334 337 339 341 344 343 342 341 341 343 343 344 346 347 348 350 354 356 358 358 358 358 357 357 358 357 357 356 356 354 355 352 357 357 354 356 355 351 344 329 326 328 330 332 340 355 351 350 348 348 348 350 352 354 354 354 353 352 351 356 362 361 362 360 356 355 355 357 357 349
317 317 318 318 319 321 322 322 322 322 323 321 321 327 333 334 335 335 337 339 338 339 339 340 341 342 343 344 345 348 349 351 354 356 356 355 355 357 357 357 358 359 357 358 358 357 357 355 356 356 355 353 352 340 329 323 324 326 329 336 354 352 348 347 348 350 353 351 355 356 355 353 355 355 354 354 360 362 364 363 360 357 358 358 358
316 318 318 318 317 318 319 321 323 321 321 322 320 322 324 324 329 333 333 335 334 334 335 337 339 341 342 343 344 345 347 350 352 354 354 353 354 356 358 360 360 360 360 359 356 355 353 354 356 357 355 354 355 337 329 321 321 323 327 343 352 353 350 348 348 349 350 353 354 356 359 358 356 356 358 348 352 360 362 363 365 364 362 360 359
317 318 318 319 319 319 320 322 321 320 319 321 323 323 324 323 323 326 336 333 332 333 332 334 334 335 336 338 341 342 344 346 349 350 349 349 351 353 356 358 357 357 357 356 356 355 355 354 355 357 358 357 356 344 330 319 318 320 326 347 351 353 353 351 350 352 354 354 354 354 354 353 357 360 353 338 337 350 354 356 358 360 362 363 364
316 319 318 319 319 320 320 320 320 321 320 321 322 325 326 327 326 326 329 333 328 329 333 333 332 333 334 337 340 340 341 343 345 347 349 350 352 353 354 356 353 353 353 354 355 355 356 356 355 356 357 357 357 351 332 319 316 317 330 346 349 352 352 353 353 355 357 358 359 361 362 355 353 354 344 335 335 346 355 355 355 355 356 357 360
316 317 316 316 318 320 320 320 320 319 320 321 322 322 323 323 323 322 322 322 323 324 326 329 329 333 336 336 335 338 337 338 343 344 348 349 349 349 351 354 354 355 355 356 356 354 355 358 357 356 358 359 358 349 333 320 315 315 327 347 351 352 352 353 353 354 357 358 358 361 361 355 355 351 336 333 330 345 357 358 357 355 353 352 354
316 317 316 318 320 319 318 317 317 318 320 321 321 322 324 324 323 323 323 322 324 325 325 327 329 330 332 337 338 338 338 336 338 343 348 352 354 351 350 352 354 357 355 355 356 356 354 354 356 358 357 357 356 357 355 326 314 313 318 347 355 354 352 353 354 354 356 357 358 358 356 336 330 331 331 329 327 326 354 360 360 356 353 352 356
315 314 319 316 317 317 316 316 318 320 319 319 319 320 322 324 324 325 324 324 326 328 328 331 332 328 329 333 336 339 338 338 337 339 345 347 349 349 350 356 356 357 356 354 353 354 355 355 356 356 356 355 355 357 355 325 313 310 312 325 353 355 355 354 354 354 355 354 356 358 359 344 327 324 323 322 323 320 333 358 361 359 358 357 362
316 318 318 316 315 316 317 317 317 317 318 318 319 321 322 323 323 323 324 327 328 328 328 328 330 330 330 333 336 339 339 340 341 342 340 339 342 343 344 348 351 354 355 355 355 352 352 355 354 353 354 357 357 352 352 331 322 314 310 309 337 351 355 355 355 354 355 355 356 357 360 350 329 323 321 320 319 321 321 349 358 338 338 338 356
314 315 316 315 315 316 315 315 316 317 319 319 319 320 320 322 321 324 325 327 327 327 328 327 329 328 331 329 333 334 337 337 340 342 341 341 342 341 343 347 347 348 349 351 354 353 352 353 354 353 353 357 357 356 337 349 333 324 311 308 315 335 337 354 354 352 355 355 358 359 361 354 329 319 318 318 318 320 323 336 329 329 330 332 347
314 315 316 316 315 315 315 316 316 318 318 319 320 319 321 321 322 324 324 325 325 326 327 328 329 328 328 328 328 333 336 337 339 340 340 342 342 344 345 345 346 347 349 349 350 351 352 350 350 350 351 355 356 353 348 340 343 328 315 308 308 310 313 331 349 353 355 357 358 359 357 336 327 314 312 315 318 319 331 323 321 325 328 334 350
314 314 317 316 314 314 315 316 317 318 319 320 319 319 319 320 322 325 325 324 324 325 326 325 325 325 326 327 329 332 336 337 336 336 337 339 340 342 342 345 345 344 345 346 349 354 352 350 349 348 350 352 351 351 352 349 337 337 319 313 310 310 313 315 329 344 351 353 321 315 318 323 328 321 310 312 314 315 316 320 321 323 331 344 348
315 315 315 315 315 315 315 315 316 317 318 320 319 319 319 320 322 324 325 325 325 324 324 324 324 325 326 328 328 327 327 330 327 329 332 338 338 338 339 341 343 343 346 346 347 348 350 351 349 349 350 349 350 352 357 359 350 350 342 323 312 311 315 316 320 330 324 320 322 323 324 325 329 328 332 336 339 339 323 318 320 325 339 345 348
314 315 316 315 314 314 314 315 315 317 318 318 319 319 320 322 323 321 322 326 325 325 325 325 326 324 325 326 325 325 324 324 325 325 325 326 330 333 336 342 348 346 346 347 347 347 344 343 347 347 345 347 350 354 355 356 358 357 354 348 329 328 320 318 326 333 331 339 340 339 338 329 328 332 334 339 340 342 340 333 329 332 338 344 347
314 315 314 314 313 313 313 314 314 316 317 318 318 319 320 321 321 321 322 323 324 323 323 323 323 325 325 326 326 329 329 327 327 327 326 325 328 334 337 342 338 336 336 336 339 339 337 336 338 343 345 346 348 349 352 350 351 353 355 356 358 354 348 342 340 342 342 345 345 337 337 343 346 347 350 351 351 352 350 346 342 339 339 343 347
313 313 314 313 313 313 313 313 314 315 316 317 318 318 319 320 321 321 322 321 320 322 322 322 322 323 322 327 324 323 323 324 326 331 333 336 334 331 336 339 337 338 338 335 335 333 332 329 330 335 338 335 335 338 348 324 331 323 334 344 347 353 354 354 351 337 351 353 349 348 346 347 348 347 347 349 351 352 352 354 351 348 346 346 347
313 313 313 313 313 313 313 313 314 315 316 316 316 317 318 318 320 320 321 320 320 319 319 319 320 320 320 321 322 321 322 323 322 324 326 329 332 318 323 331 327 333 327 319 319 331 331 331 332 334 336 335 336 341 323 313 310 309 309 310 314 314 314 332 336 326 336 344 345 345 345 346 346 347 347 348 349 350 351 353 354 342 348 349 349
312 311 311 311 312 313 313 313 313 314 314 315 315 315 316 317 317 318 317 318 318 318 317 318 319 319 320 321 321 320 321 324 323 321 322 322 322 326 312 311 313 319 316 313 310 309 310 313 328 332 333 324 322 316 309 306 305 305 304 305 305 305 305 306 308 323 335 338 342 343 345 347 347 348 348 348 349 350 351 352 353 354 354 351 348
Wind_Speed
16 16 17 16 16 14 13 11 12 13 12 14 13 12 11 7 10 9 8 9 7 7 6 5 6 4 5 7 6 6 5 4 5 5 6 6 8 6 5 4 3 4 2 3 3 2 0 1 1 2 3 2 2 2 3 1 4 3 1 1 1 1 2 3 1 3 3 2 2 1 2 1 3 1 3 3 3 3 5 5 5 4 4 6 2
17 16 17 16 15 16 14 11 13 14 12 14 13 12 11 11 11 9 8 8 8 8 6 6 5 4 5 5 8 6 5 5 4 4 4 6 7 6 6 6 5 4 2 3 4 4 3 2 2 2 2 3 1 2 3 1 3 3 4 3 1 1 4 3 3 2 2 2 2 0 0 2 1 3 6 7 6 5 5 3 3 2 6 3 4
17 17 17 15 17 17 14 12 13 14 15 15 13 12 11 9 8 8 8 8 7 8 6 5 5 5 5 5 7 7 6 6 6 6 5 6 7 5 5 5 4 3 5 4 4 4 4 4 3 3 2 3 2 3 4 3 2 2 1 2 1 3 2 2 2 3 2 2 2 1 1 1 1 3 4 6 5 6 4 5 6 5 6 6 6
18 17 18 17 17 15 14 13 12 13 13 14 14 13 12 8 8 8 8 8 7 7 6 5 6 6 4 5 4 8 6 6 7 6 5 6 7 7 5 6 8 6 5 5 4 2 2 3 2 3 3 3 2 3 3 3 3 3 3 2 1 2 3 3 2 3 2 3 2 1 3 2 1 3 6 7 4 5 6 6 5 5 4 2 3
17 18 18 17 17 16 15 12 14 13 13 14 14 13 11 13 11 9 7 8 6 8 7 5 5 5 4 4 3 5 7 6 7 5 6 5 6 7 6 7 7 6 6 5 4 3 3 1 1 2 3 2 3 3 3 3 4 3 3 2 2 1 2 2 2 2 1 3 0 1 1 2 2 2 2 2 4 2 4 4 3 1 6 4 3
16 17 18 17 17 15 15 14 16 14 13 14 13 14 12 12 11 8 7 6 8 9 6 6 4 6 5 4 6 4 6 6 9 9 8 9 7 6 6 5 4 3 2 4 6 5 4 3 3 2 4 3 1 2 2 3 3 3 4 2 2 3 2 2 3 2 3 0 3 1 1 1 2 4 2 0 2 3 2 6 3 3 5 3 2
12 15 16 17 17 16 16 15 16 15 14 14 13 13 13 13 11 10 8 6 8 9 7 6 5 5 5 6 5 5 5 6 5 4 7 6 6 7 7 8 7 6 9 6 6 7 5 5 5 4 4 5 3 2 2 5 3 3 5 2 2 2 2 1 2 2 2 1 4 5 2 1 3 0 2 1 2 3 3 5 4 4 7 6 5
13 12 14 16 16 16 16 16 15 15 15 15 14 14 12 12 12 10 8 7 6 9 8 7 7 6 6 6 5 5 6 4 5 5 8 6 7 8 7 7 11 11 6 5 6 5 6 6 6 3 3 4 4 4 6 5 3 3 5 2 2 2 1 2 2 2 3 2 3 3 2 3 4 5 1 1 1 1 4 1 4 6 7 7 10
11 12 8 13 17 16 17 16 15 16 15 15 13 13 12 12 12 10 10 8 7 10 8 7 7 7 6 6 5 4 5 5 4 5 4 6 5 7 6 6 6 4 7 7 7 7 6 5 4 4 3 3 4 4 3 2 4 3 6 4 2 1 2 1 0 3 4 1 2 2 5 2 2 1 3 3 2 2 1 4 4 6 5 7 5
12 12 12 11 13 17 17 16 16 14 14 14 14 14 14 12 13 12 11 9 8 11 8 8 9 7 7 6 6 5 4 5 4 6 6 6 4 6 6 6 6 6 5 5 5 6 5 4 4 5 5 3 1 3 3 4 3 3 3 4 3 3 1 2 2 1 2 3 3 2 2 3 5 0 3 2 4 2 2 1 2 3 3 1 3
10 9 7 9 12 8 10 16 14 14 13 15 14 14 14 14 13 13 11 9 10 11 10 9 9 8 7 7 6 6 5 5 5 6 4 6 7 6 6 5 5 6 5 4 6 7 6 5 6 6 4 3 3 3 3 4 5 4 4 3 3 2 1 2 1 0 1 2 1 2 2 4 3 1 2 2 1 1 2 5 3 3 5 2 4
12 11 11 9 3 6 3 9 12 14 14 15 14 14 13 13 14 13 11 11 10 11 11 11 8 8 7 7 7 6 6 5 6 6 6 7 5 6 6 6 4 5 5 5 6 8 6 5 3 4 3 3 4 4 2 1 1 4 3 4 2 3 3 1 2 2 2 2 3 3 4 5 2 3 2 2 1 1 2 5 2 1 2 4 2
11 9 10 9 6 5 6 4 5 7 11 13 13 15 14 13 15 14 13 12 10 12 12 11 9 8 7 8 7 6 6 5 5 5 6 6 7 5 6 6 6 5 4 6 6 6 6 5 5 4 5 4 2 3 1 1 1 1 4 5 3 3 2 2 1 2 3 2 4 3 4 6 4 3 1 4 1 2 2 2 3 3 1 1 3
12 10 10 8 8 7 4 2 3 5 10 13 13 12 13 14 14 15 13 12 10 12 12 11 10 9 8 8 7 6 6 5 5 6 6 5 5 6 7 7 7 7 7 6 7 6 6 6 6 5 4 4 4 3 2 3 2 1 3 2 4 3 3 3 2 3 2 2 3 4 3 3 2 1 2 1 4 3 3 2 1 2 5 2 1
8 9 11 7 7 8 7 6 5 4 7 7 10 12 12 13 13 14 13 12 12 12 11 12 10 9 8 8 7 6 6 6 5 5 6 6 7 7 5 6 6 7 7 5 5 6 6 6 6 7 5 5 5 5 4 4 2 3 1 3 2 4 2 3 3 4 5 5 3 2 2 4 3 4 3 4 2 2 3 4 4 4 3 5 1
11 10 9 8 8 7 6 7 7 6 4 5 7 6 13 11 14 14 14 13 13 11 11 11 10 9 9 8 8 8 6 6 5 5 5 6 6 5 6 5 5 5 7 7 7 8 7 7 7 6 6 5 4 4 3 3 2 3 2 2 1 3 4 3 3 4 5 3 3 2 1 4 5 3 3 4 5 4 5 2 2 1 2 3 4
10 10 10 14 10 10 7 7 7 7 6 4 4 10 13 9 14 14 13 14 14 12 12 11 10 10 10 10 9 9 9 9 9 9 9 7 6 5 6 7 5 3 6 7 8 6 5 6 6 7 6 5 5 4 4 4 3 2 3 3 3 3 4 3 3 3 3 4 3 4 2 2 3 3 4 2 5 3 2 3 2 3 2 1 2
8 9 9 9 7 10 10 7 6 4 7 8 8 4 5 11 10 12 14 13 13 14 13 12 11 10 10 11 10 10 10 11 10 10 8 7 6 5 5 6 6 7 6 7 6 7 5 6 5 4 7 6 6 6 5 5 4 4 5 4 4 3 2 3 3 3 3 3 3 3 4 3 2 3 1 3 3 2 2 2 3 2 3 1 1
7 8 8 10 10 7 7 7 6 5 7 9 7 5 2 5 12 8 13 13 14 12 12 10 12 10 10 11 12 10 10 10 8 8 8 7 9 8 7 6 8 5 4 4 6 7 5 6 5 5 6 6 6 5 6 4 5 4 4 4 4 3 3 3 3 3 3 3 3 3 3 3 3 3 3 4 2 4 3 3 4 2 2 1 1
2 7 6 6 8 8 7 6 7 7 6 7 9 6 7 7 6 7 8 7 10 11 11 12 12 11 11 10 10 8 8 8 7 9 10 9 8 9 8 9 7 6 6 4 5 6 6 7 7 7 6 7 6 6 7 5 5 4 4 5 4 4 4 4 4 4 5 5 3 2 1 1 2 2 2 3 3 0 2 5 5 1 1 1 1
11 7 3 4 4 8 9 7 4 5 8 8 9 9 6 5 6 9 11 10 6 7 9 8 9 9 10 11 12 11 12 10 11 9 9 8 8 8 9 7 6 6 7 7 6 5 6 6 7 6 7 6 6 5 5 5 5 5 4 4 4 5 5 4 3 3 5 3 4 3 3 3 3 3 2 3 3 2 2 2 2 2 3 3 4
10 11 12 7 8 8 8 6 5 6 5 7 6 5 5 6 7 7 8 5 5 2 6 4 7 10 10 12 13 12 12 10 12 11 10 9 9 8 8 7 9 7 7 9 7 7 7 7 7 7 5 6 6 5 7 6 6 5 5 6 5 5 5 4 3 4 3 3 3 3 3 4 3 3 3 4 4 4 5 4 4 4 3 4 4
9 11 11 12 11 9 8 6 7 8 6 3 4 6 7 8 4 3 6 6 3 2 1 2 4 7 7 11 12 12 11 13 14 12 13 12 11 10 7 9 9 9 7 7 9 9 6 6 7 5 6 5 6 7 5 5 5 6 6 6 6 6 5 5 5 4 4 3 3 3 4 4 5 5 5 4 5 4 4 4 6 6 5 4 5
11 10 10 11 12 11 8 6 6 7 5 3 5 5 4 3 4 4 4 4 3 3 3 2 2 3 8 11 11 11 14 14 14 12 14 13 12 11 9 9 10 9 10 7 7 9 7 7 6 5 5 5 6 7 6 5 5 6 6 6 4 5 6 6 5 5 6 5 4 4 4 4 4 4 3 3 3 4 4 3 3 2 3 3 3
11 11 12 12 14 14 11 9 7 6 5 3 4 3 5 5 5 5 4 4 3 2 2 2 1 0 3 9 16 14 14 14 14 13 14 14 13 12 10 10 10 9 9 9 6 7 8 8 8 7 6 6 6 7 7 7 6 6 6 7 6 4 4 5 5 5 5 4 5 5 5 4 4 3 3 4 4 5 3 4 3 3 2 2 2
11 12 13 14 12 11 12 11 8 6 5 5 5 5 3 2 5 2 4 4 3 2 1 2 2 5 3 5 13 15 14 15 14 13 13 13 13 11 11 11 10 9 7 9 9 7 7 8 8 8 7 7 6 6 7 7 8 8 7 7 6 6 5 4 5 6 6 5 5 4 5 5 5 5 5 4 5 5 4 5 4 3 3 3 3
12 12 11 11 12 13 12 12 11 11 10 9 8 6 6 6 8 7 5 3 6 4 5 4 3 4 5 8 8 8 15 10 11 11 10 10 12 12 12 12 10 9 9 9 10 9 7 7 9 8 9 7 7 7 6 7 7 6 7 8 7 7 6 6 6 6 7 6 6 6 5 6 5 5 6 5 5 5 5 4 4 5 4 3 3
11 12 13 13 11 11 10 10 10 9 10 10 10 12 7 6 7 7 7 8 5 3 1 1 0 2 3 3 5 8 7 13 16 10 7 8 8 9 8 8 9 9 10 9 9 11 9 8 8 9 8 7 8 8 7 7 7 7 6 7 8 7 8 7 7 7 8 8 8 8 9 8 8 6 6 6 5 5 5 5 5 4 4 4 4
12 12 12 13 12 11 11 9 8 10 10 10 10 10 11 7 7 7 8 8 7 8 7 6 8 7 0 5 3 4 5 6 3 7 13 11 6 5 4 4 7 9 9 8 9 9 10 10 9 8 8 9 10 10 9 8 8 9 7 6 7 8 7 6 7 8 8 8 7 8 8 9 8 12 13 10 9 7 5 5 6 5 4 5 5
12 12 12 12 12 11 11 9 7 9 9 10 8 8 9 10 9 9 9 9 7 8 7 9 8 5 4 2 5 3 2 2 5 6 6 5 10 6 4 3 3 6 6 6 6 6 7 11 10 9 9 10 9 10 10 14 12 8 8 9 7 6 7 6 6 6 7 8 10 10 9 12 13 15 16 16 15 13 11 6 3 5 6 6 5
12 11 12 12 11 11 10 10 9 9 8 7 6 5 5 9 9 10 10 10 9 9 8 6 6 5 4 4 4 4 3 1 3 3 3 6 5 4 8 11 14 10 4 4 4 6 8 7 11 11 11 11 11 11 14 16 16 15 10 9 8 6 6 7 7 6 6 7 7 7 7 9 9 8 12 16 16 16 15 13 12 9 5 3 4
11 11 10 11 12 11 11 10 9 9 8 7 6 6 7 8 8 9 8 7 8 9 8 8 8 9 6 7 6 5 5 3 3 1 2 3 3 4 3 2 3 7 11 12 6 6 5 7 8 11 13 12 12 13 15 18 18 18 14 10 9 8 8 7 8 9 7 7 8 8 8 9 7 8 6 10 13 16 16 16 15 14 14 12 9
10 11 11 10 10 10 10 9 9 9 8 9 8 8 8 7 8 7 6 8 9 8 7 8 8 9 9 6 8 7 6 5 4 5 4 4 3 3 2 2 4 5 3 4 6 9 7 7 8 7 8 12 12 15 16 19 20 20 20 16 10 9 10 9 8 9 9 8 7 7 8 7 9 10 11 9 10 12 16 19 17 17 16 16 14
10 10 11 10 9 8 8 9 8 8 9 9 9 8 7 7 7 6 6 6 7 8 8 8 9 9 7 7 8 9 10 8 6 3 3 2 2 1 1 2 3 3 4 6 6 5 7 9 8 10 8 8 8 13 18 19 20 21 21 18 13 12 10 10 10 9 9 10 10 9 8 8 8 8 5 5 6 9 9 10 10 9 9 13 15
9 9 10 9 9 9 8 7 7 9 8 8 8 8 7 7 6 7 6 7 7 8 8 8 8 8 8 8 7 6 5 5 6 5 4 3 1 1 3 4 4 3 3 4 6 6 6 8 10 10 10 12 13 15 10 17 20 22 22 18 15 14 12 10 9 8 7 8 8 10 11 11 9 7 8 8 6 7 8 8 9 10 10 10 9
8 9 8 9 10 9 8 7 7 8 8 8 8 8 9 8 6 6 6 7 7 7 8 7 7 6 5 4 5 4 4 4 5 4 3 3 3 3 4 3 4 4 4 4 5 5 8 10 11 11 12 12 13 16 13 14 17 19 22 13 14 13 12 11 10 9 8 7 7 7 7 9 10 9 11 14 12 6 6 8 9 9 9 10 10
7 8 9 9 8 8 7 6 8 9 9 8 7 7 7 8 7 6 4 7 8 7 8 7 7 8 8 8 6 5 5 5 5 4 3 3 4 4 5 3 3 4 6 7 7 7 6 9 11 12 12 11 12 13 14 14 16 19 12 7 12 11 11 12 11 9 9 9 9 8 9 9 9 8 11 14 14 12 7 8 8 9 9 10 9
7 7 8 8 8 7 6 6 8 9 8 7 7 6 6 6 6 5 6 6 8 8 7 6 6 6 7 7 6 7 6 6 5 5 4 3 3 2 3 4 6 6 8 8 7 7 8 9 11 13 12 11 12 13 14 14 17 17 16 11 11 10 11 10 10 9 9 8 10 15 14 10 11 10 12 13 15 11 9 10 9 9 9 10 9
7 8 8 8 7 6 7 7 8 9 8 7 8 7 7 7 8 8 7 7 8 8 7 7 7 5 3 4 5 6 7 6 5 5 4 3 3 4 4 4 5 6 8 8 8 8 8 8 10 11 11 12 10 12 17 13 15 16 15 11 11 10 10 11 11 10 9 9 9 11 15 15 13 13 16 13 12 10 9 10 10 10 11 11 10
7 9 8 6 5 6 8 8 9 9 8 8 8 7 8 7 7 7 7 8 8 7 6 7 6 6 6 4 3 3 4 4 5 5 5 4 1 4 5 4 5 5 6 6 8 8 8 8 8 9 9 9 8 9 7 13 12 15 20 13 9 9 11 11 10 10 8 8 9 10 12 16 18 17 16 16 14 14 10 10 9 11 11 13 9
8 8 6 6 7 8 8 9 8 7 8 8 8 7 7 7 6 6 8 8 7 6 6 6 5 7 6 6 4 3 4 5 5 5 6 7 7 6 5 3 4 4 4 5 7 7 7 8 7 10 11 11 9 9 10 14 11 11 14 11 9 10 10 10 10 10 9 10 9 9 10 13 18 19 18 18 16 15 15 11 10 11 13 10 6
5 4 6 6 7 8 8 9 9 8 9 8 7 7 6 7 6 7 7 7 7 7 7 7 6 6 6 6 5 5 4 3 4 4 4 4 4 7 7 7 6 5 5 5 5 6 6 5 5 9 10 9 7 10 5 7 10 7 11 14 10 11 12 10 11 10 10 10 10 9 9 12 17 19 20 20 21 18 18 11 13 17 17 13 9
4 5 8 7 6 7 8 8 8 9 8 8 9 8 7 7 7 7 7 7 7 7 7 7 6 6 5 6 5 6 5 4 4 5 6 6 5 5 6 7 7 6 6 6 5 5 6 7 6 7 6 5 2 2 9 4 12 19 12 13 17 18 20 13 10 11 11 10 9 10 10 14 15 18 19 21 21 23 16 14 19 19 17 16 10
5 6 8 7 6 6 6 7 6 7 7 8 8 8 8 8 8 8 7 7 7 7 6 6 6 6 6 6 7 6 5 5 5 5 5 6 6 5 5 5 6 7 6 6 6 5 6 6 8 7 5 4 5 7 8 10 10 11 4 10 14 19 20 13 10 11 10 10 7 7 8 8 5 9 15 18 20 20 15 20 20 21 19 16 9
6 6 8 7 7 7 6 7 7 8 8 7 7 8 8 8 8 7 7 7 7 6 6 6 7 7 7 7 7 6 6 5 5 5 6 5 6 5 6 6 6 6 6 6 6 5 5 6 7 6 7 7 7 6 7 7 7 1 9 15 17 18 19 20 12 8 10 6 9 17 21 19 11 5 10 11 10 14 19 21 22 22 19 9 10
5 6 8 7 7 7 7 8 8 9 9 7 8 8 8 7 8 7 7 7 7 7 7 7 8 8 7 7 7 8 7 7 8 6 6 5 5 6 6 7 6 6 5 6 6 6 5 4 4 5 6 7 7 7 5 1 4 11 10 7 8 10 14 14 11 13 16 16 15 16 18 13 13 10 4 4 6 9 15 18 20 18 9 8 11
4 5 5 6 7 7 8 9 9 9 8 8 8 7 7 7 7 8 8 6 8 7 7 6 7 8 8 8 9 8 8 9 9 9 9 8 7 7 7 6 5 5 5 5 5 4 5 6 6 4 7 6 6 6 5 5 4 0 4 7 5 4 4 5 4 6 9 10 15 15 9 13 14 21 20 14 10 10 9 9 8 8 8 9 11
4 4 5 6 6 7 8 8 8 8 8 8 8 8 8 8 8 8 8 8 7 7 8 8 9 8 8 8 7 10 10 9 9 8 8 8 6 5 4 4 4 6 6 6 6 4 5 5 6 6 7 6 5 5 3 4 5 5 5 6 3 2 3 3 3 3 5 7 9 10 12 10 10 13 15 11 9 9 9 8 7 8 9 11 13
4 5 5 6 7 7 8 8 8 7 8 8 8 8 8 8 8 8 7 8 7 8 8 9 9 8 8 6 8 8 7 7 6 6 6 6 6 6 6 5 6 5 6 7 6 7 7 8 8 6 6 7 7 6 1 2 3 2 7 7 7 5 5 4 4 5 3 5 6 8 8 7 8 11 14 15 13 12 11 11 9 8 8 9 11
5 5 7 7 7 8 8 9 8 7 8 8 9 8 8 9 9 8 8 8 8 8 9 8 8 8 9 8 8 8 9 10 10 9 9 8 9 10 7 7 9 8 8 7 5 9 10 9 9 8 6 6 7 5 9 15 16 12 8 8 9 10 11 11 12 11 5 6 8 8 7 7 8 9 11 12 13 13 13 12 11 11 11 10 12
6 6 6 7 7 7 8 8 8 8 8 8 9 9 9 10 9 10 10 9 9 9 8 8 8 8 8 9 9 9 8 7 8 10 10 10 9 9 13 14 10 11 12 16 17 16 15 13 11 8 7 10 10 10 13 14 13 14 11 8 9 12 14 15 14 9 5 9 9 8 9 9 9 10 11 12 12 12 12 12 11 10 10 12 11
Wind_Direction
166 175 161 168 163 162 151 166 152 151 146 146 153 159 154 167 138 151 148 145 151 154 166 161 162 165 154 156 143 147 138 142 143 138 150 144 144 142 138 121 107 94 92 136 140 105 50 301 221 165 197 173 123 232 294 182 144 141 205 239 340 101 287 284 296 62 79 85 288 117 109 247 186 308 261 211 202 211 152 203 228 148 153 182 117
172 172 166 169 165 161 157 167 157 157 151 155 157 162 158 161 151 155 154 148 161 161 167 168 159 168 164 167 142 146 149 159 140 147 150 150 138 141 142 128 136 121 158 161 168 156 169 202 206 233 138 114 144 236 227 222 159 167 196 145 242 284 222 208 88 119 268 146 188 246 252 231 126 222 218 230 188 187 176 161 299 172 149 152 127
175 172 170 167 166 161 161 167 161 161 155 161 158 160 160 157 152 157 157 155 165 162 178 163 166 154 181 163 153 147 158 156 145 159 162 161 142 143 132 123 131 162 181 172 181 170 167 197 201 166 138 151 164 214 224 204 185 127 351 59 333 254 280 78 39 347 284 131 50 67 354 164 317 301 289 264 189 152 166 175 186 208 133 139 146
175 173 173 170 166 164 164 168 162 160 160 163 164 162 164 152 156 164 155 159 167 160 180 164 167 157 179 162 167 134 155 148 140 149 158 150 150 154 150 152 164 179 194 181 143 139 206 179 184 126 157 200 150 230 202 171 194 173 175 188 158 232 194 157 186 140 226 106 115 258 208 184 227 264 239 237 210 147 206 169 192 113 96 72 118
176 174 176 173 170 166 168 167 168 163 167 167 168 168 168 161 160 172 160 157 175 155 177 160 158 146 165 163 109 133 137 130 124 159 161 159 161 164 174 170 176 167 179 171 142 166 200 126 167 175 170 156 169 233 225 194 175 190 111 188 164 202 324 95 169 184 48 42 332 228 354 355 322 251 171 330 350 264 194 79 4 120 122 155 240
179 178 177 174 173 163 165 172 171 167 171 169 173 171 167 160 161 167 160 157 177 155 178 154 162 149 152 181 140 181 154 137 182 164 161 165 165 180 158 174 160 110 191 185 160 177 176 170 200 183 183 142 219 269 218 301 180 196 151 190 179 222 232 192 104 314 99 53 289 106 161 169 221 296 1 298 287 301 53 116 220 130 120 151 195
182 180 181 177 173 170 170 175 175 170 175 168 176 172 165 160 159 169 164 168 173 153 174 154 163 153 169 176 159 169 168 158 142 152 148 151 157 170 164 166 148 167 195 188 157 175 178 166 196 190 203 160 181 175 220 232 177 229 138 109 251 240 5 52 130 116 43 266 210 194 218 219 188 56 1 346 354 354 314 172 185 161 148 170 184
183 189 184 182 173 176 175 177 179 172 175 169 178 172 161 156 160 169 165 171 174 152 176 163 162 162 172 179 169 170 182 158 163 137 155 156 158 161 169 169 153 180 174 171 164 172 177 193 175 174 218 171 172 201 215 213 142 175 88 114 166 346 55 12 349 103 148 255 350 357 81 339 1 309 67 305 173 235 332 212 174 180 187 171 182
191 194 194 189 176 179 175 180 183 173 176 172 179 168 155 156 159 168 167 171 170 156 173 172 159 170 179 176 174 184 179 170 155 153 131 150 142 153 161 163 133 130 158 168 171 168 187 173 172 161 156 193 197 212 212 159 157 132 130 195 123 143 237 61 17 355 332 147 33 15 359 328 252 224 33 307 293 42 302 30 20 2 20 6 21
190 192 185 195 187 182 178 182 186 178 176 171 180 168 163 160 161 173 167 173 168 160 173 174 166 172 181 182 177 183 187 161 164 147 163 138 161 147 145 154 144 163 157 188 173 171 171 167 172 172 167 195 347 268 176 170 143 149 159 170 173 173 181 147 191 217 247 341 136 10 46 320 326 129 204 242 31 8 264 195 167 141 84 339 286
184 175 176 198 187 182 189 187 188 182 176 174 180 170 168 168 165 176 166 175 166 163 173 175 173 181 175 188 183 179 193 160 171 143 156 141 153 146 146 142 155 155 162 199 177 177 165 181 178 166 165 146 166 261 234 171 156 169 178 172 160 160 188 193 240 343 262 314 142 124 237 255 201 275 67 345 282 280 1 306 194 158 135 128 4
181 179 186 181 140 76 176 203 195 184 181 175 183 169 167 167 170 174 170 176 167 167 178 174 184 175 180 188 185 181 188 173 180 157 166 153 163 158 151 149 158 157 166 183 184 176 158 192 146 143 141 178 167 214 244 109 151 165 161 126 180 133 230 128 206 186 243 161 295 175 208 260 215 271 173 151 60 27 13 310 24 329 348 126 164
176 177 188 184 164 156 150 215 250 223 181 178 184 174 170 168 171 175 173 176 169 170 177 178 181 177 182 186 186 182 186 181 171 176 165 167 167 164 162 162 161 160 174 180 189 176 162 166 166 176 155 209 153 109 14 75 321 243 127 178 178 170 188 196 141 213 223 207 218 238 223 221 211 222 200 171 107 125 280 297 332 325 224 151 152
183 178 194 169 161 155 128 138 208 273 210 180 189 175 169 173 171 179 173 176 172 170 177 180 182 178 184 183 184 180 184 187 176 182 175 165 174 168 178 173 164 176 178 185 177 168 184 168 162 171 166 163 126 130 130 234 184 338 139 194 181 169 190 170 204 227 246 247 273 313 295 297 296 186 218 88 167 171 224 239 346 335 356 281 269
185 190 185 139 118 128 148 177 208 222 277 207 201 171 165 166 171 176 173 178 175 173 176 181 181 181 183 184 181 179 186 187 186 191 170 171 188 181 184 175 178 180 175 172 171 165 200 157 179 165 172 162 171 162 184 188 176 132 316 194 196 169 204 175 187 230 202 218 233 247 341 309 295 347 302 206 55 355 41 22 64 20 352 319 285
177 186 148 132 166 162 169 180 195 211 202 212 257 234 171 165 170 178 175 180 176 176 177 182 180 182 183 185 180 183 180 187 189 185 177 184 185 186 167 182 202 177 162 169 177 182 193 161 174 175 164 170 168 183 181 165 171 164 136 254 171 198 189 187 219 214 231 209 220 255 275 290 335 273 317 11 50 43 43 11 8 136 50 340 331
181 177 157 157 169 170 174 181 194 196 183 113 64 345 320 176 171 175 175 180 178 179 180 183 179 184 183 185 185 183 185 190 191 190 196 192 184 187 167 184 196 217 173 174 174 177 169 165 178 175 166 169 176 173 178 153 187 158 166 243 206 226 156 204 201 231 232 228 193 213 232 247 286 325 341 345 107 100 16 360 351 87 127 28 325
181 171 161 131 159 174 174 179 184 161 85 88 78 39 308 300 180 177 179 182 180 180 184 182 181 188 182 188 190 187 188 193 190 189 199 183 181 196 186 175 178 206 186 182 172 167 170 173 181 180 167 184 179 180 184 175 168 194 188 200 204 208 192 179 212 218 219 249 238 197 175 240 228 281 270 278 105 125 161 260 263 161 127 119 285
183 173 162 153 167 158 151 153 172 137 105 100 111 72 3 333 310 202 185 193 181 185 184 182 185 191 190 191 194 192 188 194 194 180 198 184 191 186 206 177 183 191 209 158 166 172 170 176 183 187 170 173 180 184 181 168 186 194 177 200 212 165 185 205 203 207 219 228 243 245 159 197 215 220 241 234 177 151 158 249 296 126 152 123 112
30 150 153 151 144 130 113 94 74 83 102 107 118 156 204 200 206 309 288 214 195 191 186 186 188 194 190 190 197 196 193 198 200 178 193 187 193 178 204 183 187 180 186 181 175 177 180 181 191 195 185 185 185 196 183 187 187 201 202 195 204 187 196 206 202 210 211 179 212 229 209 252 307 312 292 312 316 246 162 187 234 211 109 165 131
64 49 52 105 98 116 103 113 139 104 114 126 161 180 197 192 195 182 208 220 205 227 207 194 194 200 185 187 195 196 201 198 202 194 191 192 189 187 191 199 175 188 183 182 186 186 188 186 190 197 194 184 186 193 181 180 187 194 218 191 205 182 202 202 225 239 238 172 182 193 201 205 223 229 256 261 261 228 213 260 288 189 183 185 195
74 64 60 77 124 111 123 126 115 108 124 147 140 151 192 200 205 215 211 195 175 142 279 267 221 201 207 190 195 195 201 198 201 200 200 193 192 194 181 200 185 186 185 187 184 199 186 188 209 187 205 180 175 192 196 187 183 196 209 212 205 192 196 221 204 212 232 250 176 196 209 224 202 224 231 228 233 247 190 187 207 236 213 213 206
51 56 56 59 74 108 98 92 97 97 87 135 139 170 186 188 172 151 166 172 176 161 197 113 345 317 247 198 199 195 199 200 201 200 202 201 195 197 189 193 199 189 192 192 180 199 190 186 203 194 187 195 170 184 208 201 188 191 204 220 205 183 193 211 212 216 217 218 231 196 211 216 224 207 213 237 248 253 256 205 195 198 210 218 215
52 59 54 52 54 60 75 97 89 98 106 159 186 178 138 110 185 196 152 142 165 161 159 119 143 198 320 283 222 200 199 202 202 203 199 204 197 193 197 199 203 199 189 201 186 189 189 189 200 200 181 202 172 180 198 216 197 193 197 218 241 186 189 205 217 208 211 216 218 217 224 217 224 226 195 213 242 271 271 283 284 191 191 213 213
67 61 56 48 44 41 40 39 53 59 73 115 179 204 171 176 195 177 149 120 118 159 169 197 153 87 159 295 272 217 206 202 206 204 202 203 203 196 191 200 203 212 192 190 198 188 184 186 196 202 195 197 195 182 191 209 209 201 198 210 220 231 210 203 214 219 226 215 211 218 214 214 229 230 208 210 230 235 252 272 266 265 252 244 267
69 66 58 50 38 41 33 31 25 40 48 21 62 60 80 180 164 151 148 148 157 159 225 240 181 161 163 237 294 276 220 206 209 206 204 203 206 203 192 194 206 210 211 187 189 201 187 185 193 198 207 199 202 197 194 209 211 204 197 206 207 212 225 215 212 217 216 219 229 223 223 218 214 216 226 221 212 225 224 236 257 256 216 212 219
72 69 64 63 54 43 38 30 25 21 23 25 26 75 65 63 68 59 47 181 167 173 162 173 193 210 206 223 212 260 314 266 215 217 215 203 205 207 202 196 199 207 213 215 183 191 196 190 188 197 204 204 200 206 201 205 223 222 197 201 213 201 210 212 220 224 223 218 220 223 219 222 227 219 221 228 219 212 227 239 228 228 255 254 233
75 76 75 67 60 58 47 34 29 22 23 33 24 5 23 57 63 58 54 43 43 86 21 166 258 334 316 13 1 13 37 341 331 315 262 220 217 210 207 197 185 199 210 219 213 183 188 198 194 199 206 202 198 204 206 204 214 235 224 196 206 214 209 212 217 213 224 228 214 216 226 215 213 218 219 222 228 221 200 217 230 237 218 219 240
78 75 73 77 75 69 59 43 32 40 30 30 26 19 338 17 56 53 50 42 23 38 51 70 73 76 249 223 173 152 177 195 204 310 335 307 252 235 228 208 178 189 204 212 225 212 183 195 201 203 208 212 207 207 210 206 207 213 238 233 208 211 221 217 212 220 216 223 235 231 219 224 208 202 206 209 223 224 219 210 214 217 219 220 217
81 78 80 76 79 83 90 85 64 54 54 37 40 28 350 3 27 42 39 33 31 42 48 59 71 97 137 145 156 153 259 213 186 204 232 309 326 319 300 304 236 204 192 198 212 235 205 185 194 195 203 216 219 215 206 205 202 209 213 228 226 214 219 225 223 222 230 218 222 234 244 235 222 206 201 203 209 218 220 228 222 199 210 213 219
79 83 82 84 75 72 73 76 82 82 69 75 56 32 22 15 12 34 36 28 32 35 46 71 103 87 19 33 74 93 155 181 301 310 25 345 347 14 15 6 348 331 280 201 205 226 238 218 193 197 203 212 220 223 199 193 200 205 210 216 228 226 210 218 225 229 231 240 244 235 232 246 251 228 206 205 206 212 218 224 231 235 228 225 228
82 70 67 75 81 71 62 59 66 77 85 80 68 57 42 36 26 26 34 44 34 26 26 29 42 61 41 4 11 23 27 39 15 40 122 87 27 18 17 61 20 345 341 332 287 234 237 254 228 204 204 211 218 223 201 190 194 200 206 214 221 228 229 215 218 226 228 232 239 248 250 247 233 226 215 202 209 211 216 222 225 230 236 231 226
85 81 73 62 64 71 69 63 56 49 58 65 68 55 47 50 43 11 14 43 47 39 27 17 24 44 48 15 7 15 18 1 12 16 46 71 50 42 339 290 223 222 232 272 313 317 278 240 254 262 226 210 214 218 204 193 192 197 201 208 218 219 223 228 223 216 221 228 230 230 240 251 259 237 217 207 196 209 214 215 219 225 230 234 231
68 71 68 64 62 61 61 74 75 62 49 48 48 67 70 52 50 33 24 58 56 49 34 31 29 35 40 22 27 28 1 357 357 10 54 58 44 24 319 298 290 296 256 269 276 278 299 295 261 246 258 264 244 219 199 193 196 197 201 202 215 219 222 226 222 220 218 216 219 226 230 235 237 253 257 230 209 207 208 214 220 224 230 236 238
76 65 59 57 53 53 50 49 76 81 63 52 45 41 62 66 59 48 42 51 52 48 45 31 28 31 33 30 26 31 27 354 359 4 8 6 353 220 226 231 236 242 250 239 260 287 294 294 292 269 253 257 254 262 208 197 195 198 202 200 212 217 224 227 230 230 227 224 214 215 220 227 230 227 233 241 227 210 204 209 214 221 225 231 230
63 78 66 49 43 42 41 32 35 57 57 55 50 45 43 43 45 65 61 69 58 56 55 38 34 24 18 40 29 11 15 17 7 7 0 330 296 272 269 274 258 242 240 253 241 233 244 257 261 264 255 242 247 253 233 195 207 207 201 202 209 215 221 226 227 233 237 235 235 230 222 224 225 226 224 224 231 226 214 207 207 211 221 226 230
62 62 72 56 36 28 30 19 48 44 39 38 57 46 54 37 31 32 49 70 70 59 52 44 33 20 17 11 6 13 21 15 11 10 16 0 331 309 294 286 274 265 257 245 246 241 244 251 256 258 258 253 250 243 236 205 201 206 207 219 215 217 222 225 230 228 231 235 237 236 236 240 235 230 223 217 222 221 235 234 226 223 225 232 229
49 61 60 46 32 9 19 17 37 46 28 17 39 27 54 44 20 21 42 53 56 44 45 44 47 42 14 353 359 5 10 13 5 354 347 325 301 277 279 280 285 288 273 268 266 260 253 250 251 255 256 260 255 253 243 213 206 200 191 196 212 219 225 229 234 233 232 238 238 234 235 236 239 241 234 218 218 208 226 233 237 237 235 237 241
47 46 35 26 14 359 357 19 38 34 8 12 37 24 36 30 16 8 30 43 44 35 30 29 18 25 60 10 352 4 360 359 345 346 337 335 346 323 301 276 279 271 276 276 267 264 267 272 270 268 268 264 267 269 260 226 212 202 196 205 205 210 223 226 229 233 232 238 240 242 238 234 234 236 235 230 219 208 224 229 231 238 242 244 243
39 39 16 13 1 5 16 5 26 20 350 12 31 21 37 28 11 0 19 25 37 29 25 21 7 355 3 9 6 348 336 333 330 339 343 324 263 283 276 275 259 251 268 281 291 295 293 286 282 282 284 285 283 280 318 330 270 219 199 206 203 208 222 224 227 231 235 230 235 238 240 236 235 234 230 227 219 203 219 229 230 235 240 240 237
27 28 1 15 14 20 6 357 20 353 359 11 10 17 19 19 6 11 15 4 15 14 11 10 356 349 348 343 338 349 326 325 327 333 335 339 329 309 299 267 258 242 237 258 272 283 295 295 309 313 303 296 302 312 4 12 332 299 282 245 246 224 221 224 225 233 232 240 239 234 235 227 222 227 230 230 224 211 213 222 227 234 233 237 217
30 35 36 24 19 11 4 3 357 351 4 360 359 17 9 7 360 4 359 356 1 1 359 351 343 330 337 334 334 331 333 318 317 307 303 303 308 324 319 315 305 290 262 253 262 273 271 274 265 271 276 293 348 12 41 34 336 276 230 241 260 271 258 234 233 225 233 233 238 240 237 228 215 216 221 225 225 220 215 219 231 233 238 232 222
9 37 40 23 21 13 6 353 350 2 1 1 358 3 358 356 354 358 355 355 352 346 341 336 326 329 332 330 324 327 320 323 305 297 293 287 285 293 299 307 308 304 298 283 264 258 274 275 270 270 276 297 260 205 149 222 254 246 229 221 230 238 251 246 245 244 230 235 236 240 242 238 221 214 216 220 223 223 218 223 230 234 235 235 229
20 27 33 14 18 6 352 349 357 4 0 2 360 353 352 350 351 359 345 343 336 332 327 324 328 327 331 321 319 314 306 295 292 286 282 280 286 277 271 273 286 294 291 280 266 267 265 269 276 279 283 260 221 249 228 217 246 288 318 239 235 250 274 292 285 280 285 263 261 280 291 281 279 231 226 223 221 221 220 225 227 231 233 233 229
25 18 25 7 358 353 349 353 4 0 4 1 356 352 348 345 351 342 342 328 324 323 326 328 326 323 313 308 300 288 279 276 275 272 268 266 270 280 283 278 280 277 277 281 282 251 237 254 261 261 266 254 259 265 266 236 213 205 224 222 225 228 240 244 253 273 270 290 336 318 325 317 307 229 220 230 256 251 238 228 225 226 229 218 225
12 14 10 353 350 352 355 358 356 356 355 353 349 347 341 346 340 335 328 324 327 332 330 322 315 305 305 303 303 305 304 298 297 293 282 267 264 254 250 266 266 267 264 270 280 285 276 238 227 253 250 258 272 278 269 198 204 236 243 248 241 235 244 251 238 247 262 288 298 295 294 301 304 304 265 219 198 220 232 238 241 235 223 220 224
10 6 356 354 356 350 355 350 349 350 347 343 344 342 340 342 330 328 320 336 340 326 317 314 315 316 309 304 297 295 295 296 289 283 277 264 246 232 233 234 240 269 293 296 296 335 358 7 9 325 291 297 289 281 283 283 280 21 247 225 209 243 235 268 268 249 265 276 288 286 284 285 286 291 293 282 256 235 228 228 224 232 234 229 224
5 355 9 347 353 347 341 345 342 344 339 338 336 335 333 331 331 324 337 339 330 331 323 318 309 303 295 289 283 275 276 276 277 278 284 288 293 309 314 328 313 298 300 303 315 334 325 323 313 304 302 313 334 316 324 359 343 331 321 316 326 258 215 218 250 245 222 227 233 255 270 266 271 271 264 247 234 244 232 217 207 202 208 220 226
352 7 355 354 345 342 340 337 336 335 332 329 329 328 332 330 332 334 333 330 323 319 319 309 304 295 295 293 291 289 281 277 280 272 257 259 266 281 292 291 289 293 295 308 320 313 307 298 292 279 282 294 294 297 71 173 285 279 300 309 307 321 326 279 236 245 281 251 235 242 248 254 250 248 249 251 252 251 244 232 214 197 197 203 214
6 356 353 344 341 335 332 331 330 336 336 332 333 331 332 332 330 331 331 324 329 326 320 317 316 314 309 313 318 322 328 328 323 320 320 317 326 335 322 305 303 304 304 281 252 267 272 280 282 284 292 290 294 304 328 319 306 300 269 249 253 264 266 268 259 240 234 257 263 269 263 257 255 250 250 250 248 246 247 242 232 214 212 210 213
352 339 335 330 322 321 324 331 337 339 331 332 330 328 330 331 331 328 329 327 324 318 313 311 312 311 317 317 310 301 301 301 298 296 295 298 294 296 297 290 277 275 273 268 258 250 256 260 253 270 267 257 263 275 279 270 270 275 284 268 246 241 247 253 265 284 269 230 239 235 245 248 248 248 251 254 249 249 247 244 242 233 214 216 216